Погода в Красноармейском

Россия / Ростовская область     47°00′19″N   42°12′33″E
темп.,
°C
ветер,
м/с
пор.,
м/с
влажн.,
%
обл.,
%
осадки,
мм/ч
давл.,
гПа
погр.,
м
20 сентября, пн
пн2000:00+18ю61063100 0.1 1013694
03:00+18ююв3571100 0.3 1013211
06:00+17ююв61079100 0.7 1012358
09:00+21ююз7106396 0.7 1012936
12:00+25зюз794190 0.1 10112328
15:00+25з783797 0.6 10112228
18:00+22юз484289 0.0 1012183
21:00+18юз34575 0.0 101455
21 сентября, вт
вт2100:00+16юз336729 0.1 101438
03:00+17юз346172 0.1 101374
06:00+16юз3764100 0.0 1014176
09:00+18юз4767100 0.0 1014436
12:00+15зсз5784100 1.1 1014395
15:00+15юз2490100 4.9 1014301
18:00+15зюз3690100 2.6 1014444
21:00+14зюз358513 2.6 1014277
22 сентября, ср
ср2200:00+12зюз35902 0.0 1014110
03:00+11зюз338777 0.0 101461
06:00+10зюз3488100 0.0 101492
09:00+14з5669100 0.0 1014581
12:00+16з56483 0.0 10141307
15:00+17з55393 0.0 10141629
18:00+14з33467 0.0 101446
21:00+12з365582 0.0 1015139
23 сентября, чт
чт2300:00+10сз36615 0.0 1015118
03:00+9ссз22635 0.0 101520
06:00+8с22645 0.0 101521
09:00+14всв3349100 0.0 1015575
12:00+16св2240100 0.0 10131042
15:00+17ссз2240100 0.0 10121052
18:00+11с5777100 2.1 1013399
21:00+10с5891100 4.8 1013348
24 сентября, пт
пт2400:00+11с5894100 4.4 1011385
03:00+12ссв5994100 7.8 1010497
06:00+12ссз5993100 0.8 1010550
09:00+12сз5788100 0.9 1012437
12:00+15сз5572100 0.1 1012859
15:00+16зсз455596 0.1 10131047
18:00+14юз22555 0.0 101413
21:00+12юз49698 0.0 1015170